Theta_e
318 318 322 321 321 323 325 331 331 333 334 327 325 326 322 326 331 330 332 334 336 333 332 335 338 338 339 343 342 341 340 343 346 344 345 340 335 338 338 338 338 337 339 340 340 340 339 340 339 338 337 335 333 334 334 333 334 333 332 332 332 332 332 334 335 335 336 335 335 335 334 335 335 333 333 331 330 329 329 329 330 330 330 330 330 329 329 329 329 328 329 328 328 328 328 327 327
319 318 321 321 323 321 325 334 332 335 338 325 322 326 325 331 332 332 335 334 336 334 334 338 340 340 339 341 341 341 339 338 337 336 337 336 338 340 338 339 337 337 339 339 339 339 339 339 338 338 336 333 334 334 332 334 335 333 332 332 332 332 332 333 333 334 334 334 334 333 333 333 334 334 333 331 331 330 330 329 329 330 330 330 330 329 328 328 328 328 328 328 327 328 328 326 327
319 319 320 321 322 323 333 335 328 334 336 324 324 332 331 333 334 336 336 332 334 334 335 339 342 340 340 345 343 341 339 336 335 334 335 338 340 339 339 339 337 338 338 339 339 339 339 338 337 336 335 334 335 335 333 334 334 332 333 333 332 332 333 333 333 334 333 333 334 333 332 330 332 332 330 330 332 333 332 330 330 331 331 330 330 330 329 328 328 328 328 328 328 327 327 326 326
319 321 321 321 325 331 343 337 334 337 330 327 328 333 340 340 339 337 334 334 336 335 333 337 344 337 341 351 342 341 340 337 335 335 337 338 339 339 340 338 338 339 338 339 339 339 339 338 337 334 334 334 334 335 334 334 332 332 333 333 333 332 333 334 334 333 333 333 332 333 331 329 331 331 330 332 332 333 333 331 330 329 329 329 329 329 328 327 327 327 327 328 328 327 326 326 325
320 323 320 322 329 331 336 330 336 336 322 330 332 335 347 344 340 338 335 335 336 335 333 339 345 337 340 344 338 343 342 337 335 334 337 337 338 339 339 339 338 338 338 338 338 338 338 337 336 334 333 332 332 333 334 334 331 331 332 333 333 333 333 333 333 332 333 333 332 333 332 331 332 332 333 333 333 334 333 332 329 327 328 329 329 328 327 326 326 326 326 327 327 326 325 324 324
320 322 320 322 323 322 333 327 328 333 326 336 338 340 345 341 340 340 334 330 331 333 337 344 345 341 343 340 337 340 337 337 336 333 336 337 338 338 339 339 338 338 337 337 337 337 337 337 336 334 333 332 332 333 335 334 330 331 332 333 333 333 333 332 332 333 333 333 332 332 332 330 331 332 332 332 333 334 333 333 331 328 328 329 329 328 326 326 326 326 325 325 324 324 323 323 323
321 321 325 330 324 324 336 329 329 334 324 331 342 342 339 339 339 337 333 329 329 333 338 343 341 346 346 337 337 335 334 335 334 333 336 336 336 338 339 339 338 338 337 337 336 336 336 336 335 335 333 333 334 334 335 333 331 331 333 331 331 331 332 331 332 333 332 332 332 332 332 330 328 329 331 333 333 333 333 333 331 328 328 329 329 328 326 326 325 325 324 323 322 322 323 322 322
322 321 329 338 335 335 337 329 333 333 318 323 336 338 337 340 337 335 334 331 330 331 333 335 338 348 344 337 342 337 332 334 333 335 336 337 337 339 340 338 338 337 337 337 335 336 335 336 335 335 334 333 334 335 335 333 332 332 332 330 329 330 330 330 331 332 333 332 332 331 332 331 329 328 330 332 333 333 333 332 330 328 327 327 328 327 326 324 322 321 321 321 322 322 322 322 322
321 321 328 335 332 335 338 331 328 325 319 325 332 334 336 336 336 334 333 330 328 330 329 331 336 341 342 342 346 337 332 333 333 336 337 338 338 339 339 338 338 337 337 336 335 335 335 336 335 335 335 333 332 334 334 333 332 331 331 329 329 330 330 331 331 331 331 331 331 330 329 330 329 328 329 330 332 332 331 331 330 328 326 325 327 327 326 323 320 319 319 320 322 322 323 323 323
325 324 327 334 332 329 331 330 326 322 318 323 329 333 336 333 332 330 332 330 327 333 330 333 340 340 344 348 344 336 331 332 335 339 339 338 339 339 338 337 338 337 337 336 335 334 334 335 335 336 335 333 332 331 333 332 331 331 330 329 329 330 331 331 331 329 329 330 330 330 329 330 330 330 330 329 330 331 330 329 328 327 326 326 328 327 324 321 319 319 319 320 321 322 323 324 324
331 333 335 337 333 326 325 328 331 330 321 323 325 325 333 330 326 327 331 329 327 334 331 336 348 344 344 346 342 336 330 331 336 340 339 339 339 338 337 337 337 336 336 335 335 334 334 334 335 336 335 334 332 330 332 332 331 331 330 330 330 330 331 331 331 330 330 331 330 330 329 329 330 330 330 330 330 331 330 329 328 327 326 327 327 325 322 319 318 319 319 320 320 321 322 323 323
329 336 344 338 330 326 329 330 331 337 330 327 323 319 327 326 324 329 331 330 329 331 328 335 345 345 347 346 342 334 329 332 334 338 340 339 338 337 337 337 337 336 335 334 333 333 333 334 335 336 334 334 332 330 331 331 331 330 330 330 329 330 332 332 331 331 329 328 328 328 328 328 329 329 329 330 330 331 330 329 328 327 326 326 325 322 320 318 318 319 319 319 319 320 320 321 322
332 335 337 331 329 330 330 329 328 332 329 327 324 320 322 323 326 331 332 331 330 328 322 328 338 346 350 343 340 333 331 332 331 335 338 339 338 338 337 337 337 336 334 333 331 331 332 334 335 335 334 334 332 329 330 332 331 329 329 330 330 331 332 331 331 330 328 327 328 328 328 328 329 329 329 329 330 330 330 329 329 327 326 325 323 319 318 318 318 319 319 320 319 320 320 321 321
332 335 333 326 329 332 330 328 326 324 325 327 325 323 323 323 326 328 331 330 329 327 320 325 337 347 346 341 342 336 333 332 330 332 334 337 338 337 338 337 337 335 334 332 330 330 333 335 335 335 334 334 332 329 331 331 330 328 328 330 331 331 331 331 329 328 327 327 327 327 326 326 328 328 328 328 329 330 329 329 328 327 326 325 321 317 317 318 319 319 320 320 320 320 321 322 322
329 337 337 329 328 329 327 326 328 326 327 327 321 323 324 322 324 326 329 332 330 325 319 324 331 330 334 345 353 339 332 332 331 331 331 334 335 337 338 337 337 334 332 332 331 331 333 335 334 334 334 333 331 330 331 331 330 329 327 329 331 331 330 330 329 328 327 326 326 325 323 323 325 327 328 327 328 329 328 327 327 326 325 322 317 316 317 318 318 319 321 321 321 321 321 322 322
332 340 336 329 327 327 326 324 326 328 329 326 318 321 324 320 324 325 325 328 327 324 325 325 322 322 332 348 352 337 331 332 330 331 331 333 335 336 336 336 335 333 332 332 331 332 334 335 334 335 334 333 331 330 330 330 330 329 327 327 329 330 328 328 328 327 326 324 325 323 322 322 324 326 326 326 326 327 327 326 325 324 320 317 315 317 318 318 318 319 321 322 322 322 322 322 322
332 336 334 330 329 328 327 323 324 328 328 325 318 321 325 321 322 320 319 325 327 328 335 330 323 330 338 341 337 331 332 331 330 331 332 334 335 334 335 334 333 332 333 332 332 332 334 335 335 335 334 333 331 329 329 329 329 329 327 327 327 328 327 327 326 326 324 322 323 322 322 323 324 325 325 325 325 325 326 325 323 320 316 315 317 318 318 318 318 318 321 322 322 323 323 322 322
330 334 333 330 333 331 329 326 326 325 323 322 318 321 327 324 322 319 320 328 331 331 336 335 332 333 333 332 331 332 333 330 330 332 332 334 334 334 333 333 333 333 332 332 332 332 334 335 335 335 335 333 330 329 328 329 329 328 328 327 326 325 326 327 327 326 324 321 321 320 322 323 324 325 325 324 323 323 323 322 320 316 315 317 317 317 317 317 317 318 321 322 323 323 323 323 322
333 336 330 331 337 333 327 324 323 320 318 320 318 320 325 323 322 320 322 327 329 330 334 336 340 340 333 332 332 332 331 330 331 331 332 333 333 333 332 332 332 332 332 332 332 333 335 335 335 335 334 333 330 329 328 328 328 328 328 328 326 325 326 328 327 326 324 323 320 318 318 322 323 324 323 323 322 321 320 318 317 316 316 317 317 317 316 316 317 318 321 322 322 323 323 322 322
332 335 330 333 335 328 322 320 320 318 317 320 318 318 320 320 320 320 323 328 328 332 337 338 344 349 340 332 329 330 330 329 330 330 331 331 332 333 332 332 332 332 332 332 332 334 334 335 335 335 335 333 330 329 329 328 328 328 328 328 326 326 326 327 328 327 325 324 322 318 316 319 321 321 321 320 319 319 317 316 316 316 317 317 317 316 315 315 317 320 321 322 322 323 322 322 322
326 329 332 333 328 321 319 318 319 317 316 320 320 317 317 316 317 319 323 328 328 330 335 337 346 351 340 331 329 328 328 329 329 329 329 330 331 332 332 332 332 332 332 332 332 333 334 334 334 335 335 333 331 330 330 329 328 327 326 326 326 326 326 327 327 327 325 324 323 318 315 317 317 316 317 317 316 316 316 316 316 317 317 317 316 315 315 315 318 321 323 323 323 323 323 322 322
324 326 330 331 324 319 318 318 320 320 317 320 321 317 317 316 315 320 325 328 329 327 327 332 342 346 338 331 329 327 327 328 328 328 328 329 330 331 332 332 332 332 332 332 332 332 333 334 334 334 334 334 332 330 330 329 327 327 326 326 325 325 326 326 327 327 326 325 323 320 318 320 319 316 314 314 315 316 316 317 317 317 317 316 315 315 315 316 320 323 323 324 323 322 323 323 322
325 325 328 330 323 319 319 318 320 324 322 321 321 317 319 320 317 319 321 324 327 327 324 325 332 335 333 330 329 329 328 327 327 328 328 328 329 329 331 331 332 332 332 332 331 332 332 333 334 333 334 334 332 331 331 330 328 327 327 326 324 324 324 325 325 327 326 325 323 322 320 321 322 320 317 315 316 317 317 317 317 316 316 315 315 315 315 317 321 323 324 324 323 323 323 324 323
323 324 329 328 321 319 319 319 321 326 324 321 320 318 320 321 318 316 318 320 323 323 314 314 324 329 330 330 329 329 328 327 327 328 328 329 329 329 330 331 332 332 332 332 332 332 332 333 333 333 334 333 332 331 331 330 329 328 327 327 326 325 324 323 323 325 326 325 323 323 322 321 322 322 321 318 315 316 317 317 317 316 316 315 315 315 315 318 322 324 324 324 324 323 323 323 322
323 324 328 324 319 320 321 321 322 325 323 321 320 320 325 323 318 317 320 322 323 318 310 315 328 330 330 332 331 329 327 327 328 328 328 328 329 329 329 329 330 331 332 333 333 332 332 332 333 333 333 333 333 331 331 331 329 328 328 328 327 326 324 322 322 323 324 324 323 323 323 322 322 322 322 321 317 316 316 317 317 316 316 315 315 316 315 320 323 324 324 324 324 323 323 323 322
326 324 327 324 320 321 322 322 323 327 325 322 322 325 331 324 318 320 324 325 320 318 322 330 335 335 333 332 331 329 328 327 327 328 328 328 328 328 328 328 329 330 331 332 332 332 332 332 333 333 332 332 332 332 332 331 329 329 328 328 328 326 324 321 320 320 320 321 322 322 323 323 323 323 322 322 321 318 316 316 317 316 316 316 316 315 316 321 324 324 324 324 324 323 323 324 323
328 324 324 323 322 322 323 323 324 328 327 324 325 328 333 323 318 323 326 326 317 319 335 338 338 340 335 333 331 329 328 328 328 328 328 328 328 327 328 328 328 329 330 330 330 331 332 332 333 332 332 332 331 331 332 331 330 329 329 328 327 325 324 322 319 317 317 318 319 320 322 322 323 323 322 323 323 321 319 316 316 317 317 316 316 316 318 323 324 324 324 324 324 324 324 323 323
324 323 323 322 323 323 324 325 325 325 324 327 327 326 330 323 320 324 325 326 318 318 335 339 340 340 334 334 333 329 329 329 329 329 328 328 327 328 328 328 328 328 329 329 329 330 331 332 333 332 331 331 331 331 331 331 331 330 330 328 325 325 325 324 319 315 314 316 316 318 320 322 323 322 322 323 323 323 322 318 316 317 317 317 316 316 319 323 324 324 324 324 324 324 323 321 321
322 323 324 325 322 323 325 325 327 325 322 328 326 323 326 322 322 325 324 325 320 317 328 339 340 336 334 335 332 331 330 329 330 329 329 329 329 328 328 328 328 328 328 329 329 329 330 331 331 332 332 331 331 330 330 331 331 331 330 327 326 325 325 325 321 315 313 314 315 316 318 320 322 322 322 323 323 323 323 319 317 317 318 317 317 317 321 323 324 324 324 324 324 323 322 321 321
322 322 324 327 324 324 325 326 328 325 323 328 325 323 325 323 323 325 325 325 323 319 321 331 334 330 331 333 333 333 329 329 329 329 330 330 330 329 329 329 329 328 328 328 328 328 329 329 330 331 331 331 331 330 331 331 331 331 330 328 326 325 325 325 323 319 314 312 315 316 317 319 320 321 321 322 323 322 322 319 316 317 318 318 318 319 322 324 324 324 324 324 324 324 322 321 322
324 322 323 328 328 326 324 325 327 324 323 327 324 325 325 322 326 328 326 324 323 323 320 322 325 325 326 329 332 333 330 329 329 330 330 330 330 330 329 329 329 328 328 328 328 328 329 329 329 329 330 331 331 331 331 331 332 331 330 328 327 326 325 324 324 322 318 314 315 317 318 319 319 319 319 320 321 320 320 319 316 316 317 318 319 320 323 324 324 324 324 324 323 323 323 322 322
328 325 326 328 329 329 326 324 326 324 323 324 324 326 326 323 327 332 329 324 321 322 322 321 320 321 322 324 328 330 331 329 329 330 330 330 331 330 330 330 329 328 327 327 328 328 328 328 328 329 329 330 330 330 330 331 332 331 329 328 327 326 325 324 323 323 322 318 316 316 317 317 317 317 317 317 318 316 318 319 316 315 316 317 319 320 323 324 324 324 324 324 323 323 323 322 322
329 328 329 329 327 330 330 326 326 325 323 323 324 326 327 327 326 324 323 322 321 321 322 321 320 318 318 319 323 327 329 329 329 329 329 330 330 330 330 330 329 328 328 328 328 328 328 328 328 328 329 329 329 329 330 331 331 330 329 327 327 326 325 325 324 324 324 321 318 315 313 314 315 316 315 315 315 315 318 320 318 317 316 317 318 320 323 324 324 325 324 323 322 323 323 322 322
330 328 330 330 326 327 330 329 328 326 324 323 324 325 325 326 325 322 322 321 322 323 323 323 321 318 316 316 319 322 326 329 329 328 329 330 330 331 331 330 330 329 328 328 328 328 328 329 328 328 328 328 328 328 329 330 330 330 328 327 327 326 326 324 324 325 323 320 318 315 313 313 315 316 314 313 314 316 319 321 321 321 319 318 318 321 324 324 325 325 324 323 323 324 323 322 322
331 328 329 330 328 327 329 331 329 325 324 323 324 325 323 323 323 324 326 321 320 322 322 323 321 318 316 315 317 319 322 325 326 326 328 330 330 331 330 331 330 329 329 329 329 329 328 329 328 328 328 328 328 328 328 329 329 329 327 327 326 326 325 324 325 325 323 321 319 315 314 315 317 318 315 311 314 318 320 322 323 322 321 319 318 322 325 324 325 325 324 323 323 324 323 322 322
331 327 328 331 330 329 328 330 329 325 325 325 324 324 323 322 322 322 324 321 320 320 319 319 318 317 316 316 316 317 319 321 321 323 326 328 329 330 331 331 331 330 330 329 329 330 329 329 328 328 328 328 328 328 328 328 328 327 327 327 326 326 325 325 325 326 325 323 319 315 315 316 318 320 316 311 314 319 321 322 323 323 322 321 321 323 325 325 325 325 324 323 323 323 323 322 322
329 327 328 330 331 331 330 329 328 324 326 328 326 324 323 322 322 322 321 319 319 320 318 316 316 316 317 316 316 316 317 317 317 318 322 325 327 329 330 330 331 331 330 330 329 329 329 329 328 328 328 328 328 328 327 327 327 327 327 327 326 326 326 325 326 326 326 324 321 318 317 317 318 320 317 313 314 318 321 322 324 323 323 323 324 324 325 325 325 325 324 324 323 323 323 322 322
328 328 329 330 331 332 331 330 327 321 324 329 327 326 325 323 323 322 320 319 319 319 318 317 315 315 316 315 315 315 315 315 316 316 318 322 326 327 329 330 330 331 331 331 330 329 330 329 329 329 328 328 328 328 328 327 328 327 327 327 327 327 326 325 326 326 326 325 324 321 319 317 318 319 318 316 316 318 320 322 323 323 323 324 324 325 325 325 325 325 325 324 323 323 323 322 322
328 329 329 331 331 330 330 329 324 318 322 329 328 326 324 322 321 320 320 320 320 319 318 318 317 316 315 315 315 314 314 315 317 317 316 320 323 325 328 329 330 330 331 331 331 330 330 329 329 329 328 329 328 328 328 328 328 328 328 328 327 327 326 325 325 326 326 326 325 324 321 317 317 318 318 318 319 318 319 321 322 322 323 324 324 324 325 325 325 325 325 324 324 323 323 323 323
329 329 329 331 331 330 333 332 323 317 320 326 327 325 323 322 320 320 320 319 319 319 319 318 318 317 317 316 317 316 316 315 315 316 316 317 321 324 326 328 329 330 330 331 331 331 330 330 329 329 329 329 328 328 328 328 328 328 328 328 327 327 326 325 325 326 326 326 326 325 322 317 316 317 316 318 320 320 319 320 321 322 322 324 325 324 325 325 325 325 325 325 324 323 323 323 323
330 330 329 331 331 330 332 331 323 320 321 320 322 326 327 325 324 323 322 321 320 319 319 319 318 318 318 318 319 318 317 316 315 315 315 316 318 322 324 326 328 329 329 330 331 331 331 331 330 329 329 329 329 328 328 328 328 327 327 327 327 326 326 326 325 326 326 326 326 325 324 319 315 315 316 317 320 322 322 321 321 321 321 323 324 324 325 325 325 325 325 325 324 323 323 323 323
331 330 328 329 330 331 331 327 324 330 330 322 322 330 336 334 329 327 324 323 323 319 318 320 319 318 319 319 319 319 318 318 317 316 315 315 317 320 323 325 326 327 329 329 330 331 331 331 331 330 329 329 329 328 328 328 327 327 327 326 326 325 325 325 325 325 325 325 325 325 325 322 318 316 315 316 317 320 322 322 321 320 320 321 323 324 324 325 325 326 326 325 324 324 323 323 323
332 331 330 329 330 332 332 328 329 336 334 326 321 329 338 336 331 330 327 325 324 321 319 319 318 317 318 318 318 319 319 319 319 318 316 315 315 318 321 323 326 327 328 329 330 330 331 331 331 331 330 330 329 329 328 328 327 327 327 327 327 326 325 325 326 325 325 324 324 324 325 324 322 319 317 316 316 318 320 322 322 321 319 319 321 323 325 325 325 326 326 325 325 324 324 323 323
331 331 332 331 330 332 330 328 332 334 331 326 321 323 330 329 328 329 328 328 326 324 322 320 318 317 317 317 316 317 318 319 320 320 319 316 314 316 320 322 324 326 327 328 329 329 330 331 331 331 331 330 329 329 328 328 328 328 327 327 327 327 327 326 327 326 326 325 324 324 324 324 323 322 321 319 317 316 318 320 321 320 320 320 321 322 324 324 325 325 326 326 326 325 324 324 323
330 332 333 331 331 331 328 328 331 330 329 331 325 321 326 329 330 328 325 325 327 325 325 323 322 321 319 318 317 316 317 317 318 319 319 316 313 314 318 320 322 325 326 327 328 329 329 330 331 331 331 331 330 329 329 328 328 328 328 327 327 327 327 327 327 327 326 326 325 324 324 324 324 323 323 322 320 318 318 318 319 320 321 322 322 322 323 324 325 325 325 326 326 325 325 324 323
329 330 330 331 334 330 327 331 333 331 332 335 329 324 329 333 333 330 325 324 325 324 324 324 322 323 322 321 320 318 317 317 318 319 318 314 313 314 316 318 321 323 325 327 328 328 329 329 330 330 331 331 330 330 330 329 329 328 328 328 327 327 327 327 327 327 326 326 325 325 324 324 324 323 323 322 322 320 319 318 319 319 321 323 323 324 324 324 325 325 325 325 326 326 325 325 324
325 327 328 330 332 329 328 330 331 333 335 335 331 326 328 334 333 330 327 327 328 325 324 324 322 322 321 320 320 319 318 318 318 319 316 312 312 313 314 316 320 322 324 326 327 328 328 329 329 330 331 330 331 330 330 329 329 328 328 328 328 327 327 327 327 326 326 326 326 325 325 324 324 324 323 323 322 321 320 320 320 320 322 323 324 324 324 325 325 325 324 325 326 325 326 325 325
325 328 330 329 328 329 330 329 329 335 336 334 332 326 327 333 332 329 329 328 326 325 325 325 323 323 322 320 319 318 318 318 318 319 317 314 313 311 311 315 318 321 324 325 327 327 328 328 329 329 330 330 330 330 330 330 329 329 329 328 328 328 328 327 327 327 327 326 326 326 325 325 325 324 324 323 323 322 321 321 321 322 322 323 324 324 325 326 326 326 325 325 325 325 325 325 325
327 328 330 331 330 331 332 332 332 334 334 332 330 327 328 331 329 330 332 328 326 325 323 322 322 322 321 321 320 319 320 320 320 320 318 317 316 311 309 313 316 319 323 324 326 327 327 328 328 329 329 330 330 330 330 330 330 329 329 329 329 328 328 328 328 328 328 327 327 326 326 326 325 325 325 325 324 324 323 322 322 322 323 324 325 325 325 326 326 326 326 326 325 325 325 325 325
329 329 330 331 331 333 334 334 333 332 331 328 326 327 330 331 330 328 328 327 326 325 322 320 321 321 320 321 320 320 320 320 320 320 319 320 317 310 308 311 314 318 321 323 325 326 327 327 328 328 329 329 329 330 330 330 330 330 330 329 329 329 329 329 329 329 329 328 328 327 327 326 326 326 326 326 325 325 325 325 324 324 324 324 325 325 325 326 326 327 326 326 326 326 325 325 325
328 329 330 329 330 333 332 332 332 331 329 325 324 328 332 334 330 323 322 324 324 323 323 320 319 319 318 319 319 319 319 318 319 319 321 322 314 308 309 310 313 316 319 322 324 325 326 327 327 328 328 329 329 329 329 329 330 330 330 329 329 329 329 329 329 329 329 329 328 328 327 327 326 326 327 327 326 327 326 326 326 326 326 326 326 326 326 326 327 326 327 326 326 326 325 325 325
328 328 329 329 331 332 329 328 329 330 329 327 326 329 331 329 325 320 320 323 322 322 321 319 319 317 316 317 316 316 315 315 317 318 322 322 312 306 308 310 311 315 317 320 323 324 325 326 327 327 328 328 328 328 329 329 329 329 329 329 329 329 329 329 329 329 329 329 329 328 328 327 327 326 327 327 327 327 327 328 328 327 327 327 326 327 327 327 327 326 327 326 326 326 326 325 325
328 328 330 329 329 330 328 325 324 327 330 328 326 327 327 326 324 322 323 325 323 323 321 319 320 317 315 317 315 314 316 316 316 318 320 321 313 306 306 308 310 313 316 319 321 323 325 325 326 327 327 327 327 328 328 328 328 328 328 329 329 329 329 329 329 329 329 329 329 329 328 327 327 327 326 327 327 328 328 328 328 328 328 328 327 327 327 327 327 327 326 326 326 326 326 326 325
328 329 329 327 326 328 328 327 326 327 328 329 328 327 326 327 326 323 324 325 324 324 323 321 322 320 319 321 319 317 317 315 315 318 319 319 312 305 305 307 309 311 314 317 320 321 324 325 325 326 326 327 327 327 328 328 328 328 328 328 328 328 329 329 329 329 329 329 329 328 328 327 327 327 326 326 327 327 328 328 328 328 328 328 328 328 327 327 327 327 327 327 327 327 326 326 326
326 328 328 327 327 328 327 327 328 328 327 329 330 327 325 325 324 322 322 323 323 322 322 321 323 323 322 324 324 320 317 317 319 320 320 322 314 304 304 306 307 309 311 314 318 321 323 324 325 326 326 326 327 326 327 327 327 327 327 327 328 328 328 328 328 329 328 328 329 328 328 327 327 327 326 326 327 327 328 328 328 328 328 329 328 328 328 327 327 327 327 327 326 327 326 325 326
324 327 327 327 327 328 328 326 326 327 325 325 327 328 328 324 321 320 320 320 321 320 321 320 320 320 319 321 322 320 320 322 326 325 325 327 317 303 303 307 307 309 309 310 314 317 321 324 324 325 325 326 326 326 327 327 327 327 327 327 327 327 327 328 328 328 328 328 328 328 328 327 327 327 326 326 327 327 328 328 328 328 328 328 328 328 328 328 328 327 327 327 326 327 326 325 325
325 328 328 326 325 327 329 327 326 327 325 325 326 325 327 324 320 320 319 319 320 321 321 321 320 318 318 317 318 323 324 321 325 328 327 330 318 302 303 307 307 309 309 309 310 312 316 320 322 324 325 325 325 325 325 326 326 327 327 327 327 326 327 327 327 327 327 328 328 328 327 327 327 327 326 327 327 327 327 327 328 328 328 328 328 328 328 328 328 327 327 327 327 327 326 325 325
324 326 327 327 326 326 328 329 328 327 325 328 328 324 325 325 320 319 319 319 319 320 321 321 321 320 318 317 319 325 324 320 323 323 325 335 323 304 303 307 306 308 309 309 310 310 311 314 317 320 323 324 325 325 325 325 325 326 326 326 326 326 326 326 327 327 327 328 327 327 327 327 327 327 327 327 327 327 328 327 328 328 327 328 328 327 328 328 327 327 327 327 326 326 325 325 324
Wind_Speed
13 12 11 11 11 5 2 4 2 2 4 2 1 1 2 2 2 2 0 1 1 2 2 1 3 3 3 5 6 6 3 3 4 4 3 3 7 16 13 12 18 18 18 16 15 14 13 13 13 12 11 11 12 11 10 10 9 6 7 8 8 8 10 10 10 11 12 11 11 13 13 13 13 14 16 16 15 16 15 15 15 15 14 14 14 14 14 15 15 15 15 15 15 14 13 14 16
14 12 10 10 8 3 1 3 3 3 5 2 1 2 2 3 1 4 3 2 2 2 1 5 7 7 7 7 6 4 2 2 2 3 1 5 13 15 11 15 19 18 18 16 15 14 14 14 12 12 12 12 12 11 12 12 9 7 8 8 8 8 9 8 8 10 11 11 11 12 13 13 13 13 15 15 14 15 15 15 15 14 14 14 14 14 14 14 15 15 15 15 14 14 13 14 16
15 13 10 7 5 3 2 4 3 1 4 2 3 3 1 1 4 5 5 3 5 5 3 4 6 4 5 5 3 2 0 3 1 2 2 11 12 11 13 17 19 18 18 17 15 14 14 14 13 12 12 12 13 12 11 11 9 9 9 9 9 9 9 9 8 9 10 11 11 11 13 12 12 12 12 12 12 14 15 15 15 14 13 13 13 13 14 14 15 15 15 15 14 13 13 13 15
14 11 9 5 3 4 4 4 2 4 3 3 2 4 1 4 6 4 3 2 2 3 1 2 4 2 3 4 2 2 1 2 2 3 4 11 11 13 17 19 19 18 18 17 16 14 14 14 13 13 13 13 14 13 11 9 9 9 10 10 10 10 10 10 10 10 10 10 10 11 12 12 12 11 11 11 11 13 15 14 14 14 13 12 12 12 12 13 14 14 14 13 13 12 13 14 14
13 8 7 4 2 2 3 3 2 4 3 4 2 4 4 5 6 4 3 4 4 3 3 2 2 2 3 3 1 1 2 0 3 4 7 11 13 16 19 20 19 18 18 16 15 15 14 14 13 14 13 13 14 13 11 10 9 10 11 11 11 11 11 11 11 11 11 10 10 11 12 12 11 11 10 11 11 13 15 14 13 12 12 12 12 12 12 12 13 13 12 12 12 12 13 14 14
12 5 7 6 3 1 3 2 1 1 4 5 3 5 5 5 6 5 3 2 2 2 3 3 3 2 2 1 0 3 2 0 3 6 11 13 14 17 19 20 19 18 18 16 15 14 14 14 14 14 13 14 13 13 12 10 9 10 11 11 11 11 11 12 12 12 11 11 11 11 11 10 9 11 10 10 11 12 13 14 13 12 12 12 11 11 12 12 12 11 11 12 12 12 12 12 12
11 4 4 6 3 2 4 2 3 3 3 4 4 4 6 6 5 5 2 1 2 3 2 2 4 6 2 2 0 0 3 2 3 7 13 14 17 18 19 20 19 19 17 15 14 13 14 13 14 14 14 13 12 11 11 10 10 10 11 11 10 10 11 12 12 12 12 11 12 11 11 10 9 11 11 11 11 10 11 13 12 11 12 11 11 11 11 11 11 11 11 12 12 11 11 10 10
9 3 1 4 2 3 4 1 4 3 1 3 4 4 6 6 4 5 2 1 1 2 2 1 1 5 0 1 1 3 4 3 4 9 14 16 20 20 20 21 20 19 17 16 14 13 14 13 14 15 14 13 12 12 11 10 10 10 11 12 11 11 11 11 12 12 12 11 12 12 10 10 10 11 10 11 11 11 11 11 10 10 10 10 10 10 10 10 11 11 11 11 11 11 10 9 9
5 3 1 3 2 2 2 2 3 2 3 3 2 2 3 5 4 4 2 0 1 2 1 4 1 2 1 3 1 5 3 4 8 12 17 19 22 21 21 21 20 20 18 16 15 14 14 14 15 15 14 12 14 14 12 11 11 10 11 12 12 12 12 12 12 12 12 12 12 12 11 9 10 11 10 10 10 10 10 9 9 9 8 9 10 9 9 9 11 12 11 11 10 10 9 8 8
4 4 1 2 2 2 3 2 2 1 3 3 2 3 3 3 2 2 4 2 1 3 1 2 3 3 3 2 1 3 2 7 13 17 20 21 21 21 21 20 20 20 19 17 15 15 15 15 15 15 14 13 14 14 13 11 11 12 12 12 13 13 14 13 13 13 13 12 11 11 11 10 9 10 10 10 10 10 10 9 8 8 8 9 10 9 8 10 11 12 11 11 10 9 8 8 8
3 4 2 3 3 1 1 2 3 2 3 4 2 3 4 3 1 1 2 3 0 2 3 1 4 3 4 1 2 2 2 11 18 21 22 22 22 21 21 20 19 18 18 17 15 15 16 16 16 15 15 15 13 13 14 12 13 13 13 14 15 15 14 13 13 12 11 11 10 11 11 10 9 9 10 10 10 10 10 9 8 8 8 8 8 7 8 10 11 11 12 12 11 9 8 7 8
2 3 3 3 2 2 3 2 4 3 4 3 1 3 4 4 2 3 3 4 1 2 4 2 4 4 4 2 3 2 4 13 18 22 23 23 23 22 21 20 19 17 16 16 15 15 16 17 17 16 16 15 13 14 14 13 13 13 13 15 15 14 13 13 12 11 11 10 11 12 12 11 10 10 10 10 10 10 9 8 8 8 7 7 6 7 9 11 11 11 12 11 10 9 8 8 8
2 1 4 2 2 2 3 2 3 1 4 2 4 1 4 5 3 6 6 4 3 4 3 5 6 5 3 2 3 3 5 14 17 19 23 24 23 22 21 20 19 17 15 15 14 16 17 18 18 17 17 15 14 15 15 15 13 12 12 13 14 13 13 12 11 10 11 11 12 12 13 13 11 10 10 9 9 9 8 8 7 7 6 6 7 8 10 11 11 12 11 11 10 10 10 9 8
2 2 4 1 1 2 4 1 2 2 3 5 2 1 2 3 4 6 6 5 3 3 1 3 7 5 2 1 2 3 8 16 17 16 20 23 23 22 22 21 19 18 16 15 14 16 19 20 19 19 18 16 15 15 15 15 13 12 12 11 13 14 13 12 11 11 11 12 13 12 13 14 12 11 11 11 10 10 9 8 7 7 6 7 8 9 11 11 11 11 11 11 10 10 10 9 8
3 2 3 2 1 0 3 1 2 4 4 4 2 1 2 1 3 4 5 6 4 4 2 2 4 2 2 4 4 7 15 20 18 15 17 20 22 22 22 21 20 19 17 16 15 18 21 21 20 20 19 17 16 16 16 15 14 12 12 12 13 14 13 12 11 11 11 11 12 11 11 13 12 11 12 11 11 11 10 9 8 8 8 8 10 11 11 11 11 11 11 11 10 9 8 7 5
2 3 4 2 1 2 3 1 2 3 4 4 2 1 3 1 3 4 4 5 4 1 2 1 1 0 4 8 5 10 23 22 18 16 16 19 21 22 22 21 21 19 17 16 17 20 21 22 22 21 19 18 17 16 16 16 15 13 12 12 13 13 12 12 11 10 9 10 11 10 10 11 12 11 11 11 11 11 11 10 8 8 9 10 11 11 11 11 10 10 10 10 9 7 5 4 3
2 3 3 1 2 3 3 3 3 3 4 4 2 1 4 1 1 2 2 4 5 1 2 2 2 2 5 6 6 10 27 23 20 19 18 21 22 22 21 20 19 17 17 17 19 21 23 23 23 22 20 19 18 17 17 16 15 14 12 12 11 12 11 11 10 9 9 9 10 10 10 12 12 11 11 10 10 10 11 10 8 9 10 11 11 11 10 10 10 9 9 8 7 5 5 4 2
1 2 3 2 3 3 4 6 6 3 2 3 1 2 6 3 1 1 2 4 2 2 3 3 3 4 3 6 4 14 28 24 22 22 21 22 21 21 20 20 19 18 19 19 20 22 24 24 23 22 21 20 19 18 17 17 16 15 13 12 11 11 11 11 10 10 9 8 9 10 11 12 12 11 10 10 9 10 10 10 9 10 11 11 11 11 10 9 9 8 8 7 5 4 4 4 3
2 3 2 4 5 4 5 5 5 2 2 3 1 3 6 4 3 1 1 2 1 3 1 4 3 5 4 1 8 21 26 25 24 24 23 22 22 22 20 20 20 19 21 21 22 23 25 25 23 23 21 21 20 19 18 17 17 16 14 13 12 11 11 11 12 12 11 9 9 10 11 11 11 11 10 10 9 9 9 10 10 11 12 12 11 10 9 8 8 7 7 6 4 3 4 4 3
2 4 2 6 5 4 4 5 4 4 2 4 1 2 4 2 2 1 3 4 2 4 4 1 2 5 2 3 13 22 23 23 23 23 23 23 24 23 23 22 22 22 22 22 22 24 26 25 24 23 22 21 21 20 19 18 18 16 15 15 13 12 12 12 13 13 12 10 8 9 10 10 10 11 10 10 10 9 10 11 12 13 12 12 10 9 8 8 7 7 6 5 4 3 4 4 3
2 4 4 5 3 3 3 5 5 4 3 5 2 1 2 2 2 1 5 5 4 6 7 7 8 8 7 5 11 18 20 20 20 21 22 22 23 24 25 26 25 24 23 22 22 24 26 26 25 24 23 22 22 21 20 19 19 18 16 15 14 13 12 12 14 14 12 10 9 9 10 9 9 9 9 10 10 10 12 13 14 13 13 11 10 9 8 8 7 7 6 5 4 3 3 3 3
2 3 4 4 4 3 3 4 5 4 4 4 3 2 2 1 1 3 8 6 5 7 8 10 9 10 12 11 12 15 15 17 18 20 21 22 23 23 24 25 24 23 23 23 24 25 26 27 26 25 24 23 23 22 21 20 19 19 17 16 15 15 14 13 15 15 12 10 10 10 10 9 9 8 8 9 11 12 14 14 14 13 12 11 10 9 9 8 8 7 7 6 4 2 2 1 2
2 3 2 3 4 2 2 2 4 4 6 5 4 2 0 2 2 3 7 8 8 6 7 9 9 11 16 16 15 13 13 16 19 23 24 24 25 25 25 25 24 24 25 26 26 26 26 27 27 26 26 25 24 23 21 21 20 20 18 17 16 16 16 15 16 16 13 12 12 12 11 10 9 9 8 9 11 13 14 14 14 13 12 11 10 9 9 9 8 8 7 6 5 3 3 3 3
2 3 4 4 3 3 3 2 2 4 6 5 4 1 1 1 2 1 4 9 9 7 5 5 7 11 15 14 13 14 16 19 22 27 28 28 29 29 28 27 27 26 27 28 28 27 27 27 27 27 27 26 26 24 23 22 21 20 19 17 17 16 17 17 17 17 15 14 14 13 12 12 11 10 10 10 11 13 14 14 14 14 13 12 11 10 10 10 10 9 8 7 6 5 4 4 5
3 5 3 2 1 3 2 2 1 1 3 3 4 2 4 6 2 1 6 10 9 5 2 1 6 10 11 12 13 13 15 19 22 24 25 27 28 28 27 27 26 26 27 29 29 28 28 27 28 28 28 27 26 26 25 24 23 21 20 19 18 17 18 17 18 19 18 17 16 16 15 15 14 13 13 12 12 13 15 15 15 15 14 13 12 11 11 12 11 9 9 7 6 6 5 5 5
5 6 3 2 2 3 1 1 1 2 1 3 3 2 6 4 1 3 8 11 6 1 3 4 7 8 9 10 12 13 12 17 21 22 25 25 24 24 26 27 27 28 29 29 30 30 29 28 29 29 29 28 27 27 26 25 24 23 22 21 19 19 18 17 18 20 21 20 20 19 19 18 16 15 16 15 14 15 16 17 17 16 15 14 13 12 12 13 11 10 10 9 8 7 7 6 7
3 5 4 2 1 2 0 2 3 2 1 2 3 5 5 2 2 4 7 8 3 3 3 4 7 8 10 9 10 13 14 18 22 22 21 21 22 25 27 28 29 30 29 29 31 31 30 30 30 30 30 28 28 27 27 26 26 25 23 21 21 20 18 17 18 21 22 23 22 22 22 21 19 18 17 17 16 16 17 19 19 18 17 16 15 13 13 13 12 10 9 9 9 8 7 8 9
1 4 2 3 2 3 1 2 4 1 2 4 4 4 6 2 2 5 7 5 3 5 4 5 7 8 10 10 10 11 14 19 22 19 19 23 26 28 28 31 32 31 31 32 31 30 31 32 32 32 31 30 29 29 28 28 28 26 24 23 23 22 20 19 19 21 23 24 23 24 25 23 22 21 19 19 18 18 18 20 21 20 19 17 15 14 14 14 12 10 8 8 9 7 7 7 7
1 4 2 5 4 4 4 3 3 2 2 4 5 4 7 7 6 7 8 7 4 6 5 6 8 8 8 9 8 9 13 17 18 20 25 28 29 29 30 34 34 32 33 33 31 31 32 33 33 33 32 32 31 30 29 29 29 28 26 25 24 23 22 21 21 22 23 24 24 25 26 25 24 23 22 21 20 20 20 21 22 22 20 18 16 15 15 15 13 11 10 10 9 9 8 6 5
2 3 2 2 3 4 6 3 1 3 3 3 4 4 8 10 10 7 8 9 7 6 7 7 7 7 7 8 7 8 12 14 18 25 30 29 29 30 32 34 33 34 33 32 32 32 33 33 34 34 34 34 33 32 31 30 30 29 28 26 25 24 24 24 22 22 23 24 24 25 26 26 26 25 24 23 22 22 21 22 24 23 21 19 16 16 16 16 15 14 12 12 11 11 9 8 7
3 2 1 2 2 3 4 4 4 4 3 3 5 4 10 11 7 7 8 8 9 9 8 7 7 7 7 7 8 9 11 16 22 28 30 29 29 30 32 33 33 34 33 33 33 34 34 34 34 35 35 35 34 33 33 32 31 31 30 28 27 25 25 26 25 23 23 23 24 24 25 25 26 26 26 25 24 24 23 23 24 24 22 19 17 17 17 17 16 15 13 13 13 12 11 10 9
1 3 2 2 3 3 3 2 7 8 2 2 5 4 11 11 6 7 7 6 8 9 9 7 6 7 7 7 8 8 10 16 22 25 27 28 29 30 32 32 32 34 34 35 35 34 34 34 35 35 36 36 35 34 33 33 33 32 31 29 28 27 27 28 27 25 24 23 23 24 25 25 26 27 27 27 26 25 24 24 23 22 21 20 19 18 19 18 17 16 14 13 13 12 11 11 10
3 4 3 3 5 2 3 3 6 9 3 1 5 5 8 7 4 5 2 4 7 7 8 8 7 8 8 7 7 8 9 11 15 21 27 28 30 32 32 32 33 34 35 35 35 34 35 35 36 36 37 37 36 35 34 34 34 33 32 30 29 28 29 29 28 27 26 25 25 25 25 26 26 26 26 27 27 26 25 24 21 20 21 21 20 20 20 19 18 17 16 14 13 12 11 11 10
3 2 2 2 4 3 2 3 5 7 5 5 7 7 13 10 3 5 4 1 4 6 8 8 8 7 7 7 7 8 9 9 11 19 29 31 32 33 33 33 33 33 35 35 35 36 36 37 37 37 38 37 37 36 35 34 34 34 32 31 31 30 30 30 29 28 28 27 28 27 26 26 26 26 26 27 28 28 26 24 21 19 20 21 22 22 21 20 19 19 18 16 15 14 13 13 12
5 4 3 1 3 5 6 3 3 6 6 6 7 7 16 16 8 6 6 2 3 7 8 8 9 7 6 7 7 8 9 10 13 22 30 31 32 33 33 32 31 32 34 35 36 36 36 37 38 39 39 38 38 37 36 35 35 34 34 32 32 32 31 31 31 31 31 30 29 29 28 28 27 26 26 27 29 28 26 24 22 20 20 21 23 23 22 21 21 20 19 17 16 16 15 15 15
8 6 6 5 4 5 5 4 4 6 5 6 9 9 15 18 11 9 9 6 5 10 9 8 8 7 6 6 7 9 10 11 17 26 28 26 29 31 32 32 32 32 33 34 35 35 36 37 38 39 40 39 38 37 37 36 35 35 34 33 33 34 34 33 33 34 33 32 31 30 30 29 28 27 26 27 29 28 26 25 24 22 21 22 24 25 24 23 22 22 21 18 18 17 16 16 15
8 6 5 6 5 4 4 4 5 4 5 5 9 10 15 18 13 10 8 4 7 12 12 10 9 8 8 8 9 10 11 12 19 26 23 23 28 30 30 31 31 32 33 33 34 36 37 37 38 40 40 39 39 38 38 37 37 35 34 35 35 35 35 35 35 35 34 33 32 32 33 31 29 28 26 27 29 29 27 26 25 25 24 25 26 26 25 24 23 23 22 20 19 19 19 18 16
8 7 6 5 6 5 4 5 3 3 3 4 7 8 13 17 14 11 6 4 10 14 13 11 11 10 9 9 11 11 9 9 14 18 17 21 26 28 30 30 30 32 34 35 35 37 38 38 39 40 39 39 40 40 40 39 39 38 36 36 36 36 36 36 36 36 35 34 33 34 35 33 31 29 28 28 29 30 30 28 28 27 27 27 27 27 26 25 25 25 24 22 20 20 20 19 18
6 5 5 6 4 1 4 4 2 2 4 4 6 6 10 14 14 11 7 8 13 13 10 11 11 10 11 12 11 10 9 9 11 13 14 20 25 27 29 30 32 35 36 37 37 37 37 38 40 39 39 41 41 42 41 41 40 39 37 36 36 35 35 36 37 36 35 35 35 34 35 36 34 32 30 30 30 31 32 32 30 30 29 29 29 29 29 28 28 27 27 25 22 21 21 19 20
4 4 5 5 3 3 3 4 2 3 3 2 3 5 7 10 11 11 10 11 13 13 11 11 10 11 14 13 11 10 12 13 13 12 13 17 22 24 27 30 33 35 35 35 37 37 38 39 41 40 40 41 42 42 42 41 39 37 37 36 35 34 34 35 35 35 35 35 35 35 36 37 36 35 33 32 32 32 33 34 33 32 31 31 31 32 32 31 30 30 28 27 25 23 22 21 22
4 5 6 4 4 7 5 2 1 1 1 1 1 6 6 7 10 13 9 6 9 12 9 11 12 13 13 12 12 12 13 13 13 13 12 13 18 23 27 32 34 35 35 36 38 39 40 41 41 40 40 41 41 41 41 40 37 35 34 32 30 29 30 30 31 34 36 36 37 37 38 38 38 38 36 35 35 34 34 35 35 35 34 33 33 34 34 34 32 31 30 29 29 27 25 23 23
5 6 8 6 6 8 5 3 2 2 3 2 1 3 6 5 8 12 8 3 7 8 6 12 14 12 11 11 13 14 13 14 13 13 12 11 17 22 26 31 32 33 36 38 40 41 42 41 40 40 40 41 41 41 40 39 37 35 33 31 29 28 28 30 33 35 36 37 39 38 37 37 39 40 39 38 38 37 36 36 36 36 37 36 35 35 35 35 34 33 31 30 31 30 28 25 24
6 6 8 7 7 7 5 5 3 1 4 3 2 4 6 5 5 8 7 6 9 8 7 12 14 11 10 11 13 13 13 14 12 13 12 11 16 20 23 28 31 34 37 39 40 41 42 41 40 41 41 41 41 40 40 40 39 37 36 36 35 32 31 33 35 35 34 36 37 36 37 37 39 40 41 41 40 40 39 37 37 37 38 38 37 37 37 37 36 35 33 32 32 31 30 28 26
6 5 10 9 8 7 5 5 4 3 2 2 1 3 5 7 6 7 7 8 11 11 11 13 12 11 11 12 13 13 13 13 12 13 12 12 16 20 24 29 34 37 38 38 39 41 40 41 42 42 42 41 40 40 40 41 41 39 38 37 37 37 36 35 33 33 34 34 34 35 36 37 38 40 41 42 42 42 41 40 39 38 38 39 39 39 39 38 37 36 34 33 33 33 32 31 29
6 6 10 8 5 5 3 4 3 1 2 3 2 3 3 8 5 4 6 9 11 13 16 16 13 13 14 13 13 12 13 13 12 12 12 12 16 22 27 31 35 38 38 38 41 41 40 42 42 41 41 41 40 40 41 42 42 41 40 38 38 37 37 35 32 32 33 33 33 35 35 36 37 38 40 42 42 43 42 42 41 40 40 39 39 39 39 38 38 37 36 35 34 34 34 33 31
4 5 7 5 5 5 3 3 3 2 1 7 6 5 4 8 5 4 3 6 9 11 13 14 14 15 14 13 13 12 11 10 9 10 11 14 20 26 29 31 33 36 38 40 41 40 40 40 40 40 40 40 40 41 41 42 42 41 41 40 39 38 36 33 32 31 32 32 33 34 34 35 36 37 39 40 41 42 42 43 42 41 41 40 39 39 39 38 38 38 37 37 36 35 35 35 33
2 5 5 5 4 4 3 2 2 1 4 10 10 10 7 8 4 6 5 5 8 9 9 12 14 13 12 12 11 10 8 7 8 9 10 15 21 25 26 27 31 34 36 37 38 38 39 38 38 39 41 40 39 40 41 42 42 42 43 42 41 40 36 33 32 32 32 31 33 33 33 34 35 36 37 38 40 41 42 43 42 42 41 40 40 40 40 39 38 38 37 37 37 37 36 36 35
2 1 4 3 1 1 2 1 1 3 6 9 11 12 11 9 5 4 6 6 7 9 10 13 14 12 11 10 9 8 7 7 7 8 9 11 14 17 20 24 28 31 31 33 36 36 36 35 36 38 40 40 39 39 40 42 42 43 45 44 42 41 37 35 34 34 33 32 33 32 31 31 33 35 36 37 39 40 41 41 41 42 42 42 42 42 41 40 39 38 38 38 38 38 37 36 36
2 1 4 5 3 1 3 3 2 5 7 5 4 9 9 12 9 5 7 7 8 10 11 13 13 11 10 9 8 7 6 7 7 7 8 8 8 11 15 21 25 27 29 33 36 36 35 35 36 37 39 40 39 39 40 41 42 44 45 44 43 41 37 36 36 35 34 33 33 31 30 31 32 33 35 36 38 38 39 41 41 42 43 43 43 43 42 42 40 39 39 39 39 39 39 38 37
9 6 7 8 5 3 5 5 2 6 8 3 2 5 5 9 8 8 11 12 12 12 11 12 11 11 11 9 9 8 7 7 7 7 7 7 8 10 15 20 23 25 29 33 35 36 35 35 36 37 39 40 39 39 40 40 42 44 44 43 42 40 37 37 37 36 35 33 32 32 32 32 33 34 36 37 37 36 37 40 41 42 43 43 43 43 43 42 41 40 40 40 40 40 39 38 38
13 10 7 7 5 5 6 6 6 7 6 2 2 4 4 5 4 5 10 12 11 9 10 10 9 10 10 8 9 10 9 9 8 7 8 8 10 13 16 19 22 25 29 31 33 34 34 34 36 37 40 39 38 39 40 41 43 44 42 41 41 40 39 38 38 38 36 34 33 32 33 33 34 36 36 36 36 35 36 38 39 40 42 41 41 42 42 41 40 40 39 40 40 40 39 39 39
7 5 5 8 5 5 2 2 5 5 3 3 4 4 4 5 6 7 6 8 10 10 10 10 11 10 7 7 9 9 10 10 8 8 9 9 11 14 16 18 22 25 27 29 31 32 33 34 35 37 41 40 38 39 41 42 43 42 41 42 42 40 40 39 39 40 38 37 35 34 35 35 35 36 36 35 34 34 35 36 37 38 39 39 39 40 40 40 40 39 39 39 39 40 39 38 39
4 5 8 7 2 5 2 2 1 3 2 5 3 5 6 5 9 11 9 11 12 11 11 11 13 11 7 8 10 9 9 10 9 8 8 9 9 12 16 19 21 24 26 28 32 33 35 36 36 37 39 38 36 38 41 42 42 41 41 42 43 41 41 41 42 42 40 38 36 36 37 36 36 36 35 34 34 34 34 35 35 36 37 37 38 38 39 39 39 39 39 39 39 39 39 39 39
5 8 9 3 4 2 2 2 1 3 3 4 3 10 8 2 6 7 10 14 14 14 16 12 11 9 7 9 10 10 10 9 8 8 8 8 8 11 16 19 22 24 26 29 32 33 34 36 36 37 38 37 37 38 40 41 41 41 41 42 43 42 42 43 44 43 40 37 37 38 38 37 37 36 34 34 34 34 34 34 34 35 36 37 38 38 38 38 38 38 39 39 40 39 39 39 39
3 5 5 6 2 3 3 3 2 3 5 4 4 10 8 7 8 4 8 16 16 18 20 13 9 8 8 9 10 10 9 8 8 7 7 7 8 12 16 18 20 22 24 26 27 27 30 33 34 35 37 38 37 37 38 40 40 40 40 41 41 41 42 43 43 41 37 36 39 39 38 38 37 35 35 35 34 34 34 33 33 34 34 36 37 37 38 38 38 38 38 39 38 38 38 38 39
1 1 3 3 2 3 4 5 2 3 6 5 4 6 5 9 11 8 10 13 14 18 18 13 12 12 11 10 9 9 8 8 8 7 7 7 8 12 15 17 17 18 20 23 23 23 26 29 31 33 36 36 35 35 36 37 38 38 38 38 38 39 40 41 40 38 36 37 39 39 37 38 36 35 36 35 34 35 34 34 34 34 34 35 36 37 37 37 38 38 38 38 37 37 37 38 39
6 6 8 6 3 1 1 4 3 3 5 4 5 7 8 6 6 9 13 12 12 14 14 13 14 13 13 12 10 9 9 8 8 7 7 8 8 11 14 15 15 15 16 18 20 22 25 27 29 32 34 33 33 34 34 35 36 36 37 37 38 38 38 38 37 36 36 38 39 38 38 37 35 35 36 35 35 35 34 34 34 34 35 35 36 37 37 37 38 37 38 37 37 37 38 39 38
13 11 12 12 10 6 4 6 5 3 4 4 4 9 11 5 5 9 13 12 13 14 14 14 13 11 10 9 9 9 9 8 8 7 7 7 7 10 12 12 12 13 14 15 17 20 22 24 27 30 31 32 33 33 33 34 34 34 36 38 37 36 35 35 35 35 36 37 38 37 37 36 35 36 35 35 35 35 35 35 35 35 36 36 36 36 36 36 37 37 37 36 36 37 37 37 35
Wind_Direction
349 352 346 342 335 320 347 52 65 323 69 89 322 97 237 254 208 171 50 325 29 345 308 33 50 63 99 121 145 152 138 155 167 141 206 254 144 154 156 155 157 154 150 144 146 147 146 147 144 139 132 129 131 124 119 117 112 114 102 93 86 100 118 116 111 105 102 100 98 99 100 100 97 97 96 92 93 97 95 93 92 90 90 88 88 87 87 91 91 93 91 87 86 82 81 88 89
348 348 347 338 338 1 269 69 87 333 52 87 274 152 256 321 135 178 200 210 160 154 88 87 78 67 74 100 117 109 50 325 180 150 216 148 143 156 159 160 160 156 152 147 149 151 150 149 146 138 134 133 128 123 120 119 124 127 113 108 105 99 105 110 110 103 101 101 100 102 103 104 100 98 96 93 96 100 99 96 96 93 91 90 90 88 90 93 94 93 91 88 86 84 86 93 91
346 343 349 337 335 42 56 45 82 54 72 134 265 252 269 139 180 196 212 182 152 151 137 88 76 66 64 69 56 72 12 320 103 102 120 147 150 160 165 166 162 159 155 152 152 153 151 150 147 141 138 136 130 125 123 127 132 129 123 118 112 112 112 112 111 101 97 98 97 95 96 101 101 99 100 102 105 108 105 98 96 95 91 91 91 90 90 94 95 94 92 89 87 88 93 97 98
346 344 352 352 4 38 54 45 113 115 114 187 257 266 234 178 189 197 228 232 192 166 171 47 50 3 65 88 44 69 179 314 115 126 152 165 163 160 166 167 163 161 156 155 156 153 151 150 147 144 142 140 135 131 129 135 138 132 130 128 125 125 123 119 116 107 102 104 100 95 95 99 104 107 111 116 115 112 109 102 101 101 97 97 95 94 94 100 102 101 98 93 91 93 97 100 103
348 359 9 30 69 41 80 76 93 103 172 185 175 259 240 198 195 193 228 260 261 233 202 92 75 311 54 107 139 135 206 193 148 162 162 176 169 159 166 166 165 162 158 157 156 154 153 152 149 148 147 142 139 136 131 132 133 136 137 134 128 127 128 125 123 120 114 112 108 104 102 105 110 112 113 116 118 115 113 109 104 100 101 100 96 95 96 102 107 107 104 98 99 100 102 105 106
351 17 37 51 93 112 93 77 12 278 223 172 158 251 226 200 202 192 196 231 238 204 180 106 135 145 59 342 9 148 212 114 158 178 168 176 173 163 166 167 167 163 160 159 156 156 155 155 155 153 149 145 141 137 136 136 134 137 138 131 128 128 130 130 130 130 122 118 115 115 117 118 117 116 117 118 118 117 115 113 106 99 102 103 97 96 97 99 101 105 108 109 112 109 107 109 107
351 357 37 54 53 33 88 133 222 249 238 171 181 205 195 210 202 167 159 160 79 22 59 105 140 113 72 300 43 19 307 265 186 177 173 173 170 166 168 168 167 164 162 162 160 160 159 158 157 156 152 149 146 143 143 142 138 139 138 133 135 136 134 135 138 137 131 127 123 123 125 126 127 127 129 126 124 122 118 115 111 106 107 107 102 99 99 101 103 107 117 120 119 116 112 109 106
359 3 28 77 40 28 89 171 244 221 228 221 217 183 188 210 182 144 160 151 125 5 52 230 118 91 334 1 102 305 326 231 192 173 173 165 165 166 169 170 168 166 165 165 165 166 164 162 160 158 156 154 150 147 146 143 142 144 143 142 144 144 142 142 144 141 137 135 133 137 131 122 133 141 139 133 130 128 123 121 118 116 116 113 107 104 103 105 111 116 122 126 124 120 114 108 106
21 36 36 83 69 31 56 319 283 246 272 272 209 191 211 204 171 140 140 351 187 132 98 240 223 95 187 45 289 291 348 178 172 168 168 162 164 168 170 172 172 169 168 169 169 172 170 168 167 162 157 156 154 153 153 148 146 148 146 147 148 147 148 148 152 155 153 152 148 150 143 130 139 146 147 139 130 130 130 131 127 125 123 121 118 119 119 113 115 118 120 125 127 125 116 106 103
31 26 75 75 79 36 353 305 290 251 267 282 212 214 217 191 187 171 136 151 176 102 195 223 89 97 129 92 269 301 7 154 161 164 167 167 168 170 173 175 176 172 169 171 172 175 173 172 173 167 161 158 161 162 161 155 150 150 149 149 153 155 158 158 160 163 162 155 147 147 146 140 137 138 146 147 141 139 138 139 139 137 130 128 132 134 129 121 120 118 115 117 122 125 120 108 101
33 358 84 75 66 88 283 258 292 264 276 312 285 237 201 161 140 250 106 136 267 100 192 109 86 121 94 48 254 292 202 160 162 168 171 173 174 175 176 176 179 175 171 173 176 179 175 175 176 171 166 164 164 167 164 158 152 153 156 157 162 166 165 163 157 154 155 149 144 147 149 146 142 142 147 152 149 144 142 142 143 146 143 139 142 144 133 126 124 118 112 111 113 117 118 114 107
91 341 61 88 125 183 206 210 285 280 316 328 206 260 178 135 120 198 149 151 177 138 211 204 136 140 76 331 267 297 198 169 167 172 176 178 179 180 179 178 179 180 177 176 178 181 178 177 178 174 172 169 165 167 164 161 161 161 164 164 169 171 161 157 152 148 154 152 149 152 155 156 158 159 156 154 151 146 145 143 142 147 151 151 149 149 136 129 126 117 112 110 111 114 115 117 116
117 142 86 122 178 162 168 193 282 308 329 268 192 272 129 139 210 199 158 137 145 126 244 218 143 109 93 260 282 306 217 178 164 169 179 181 183 184 183 182 181 184 184 181 181 180 180 180 180 177 176 172 167 168 165 167 173 171 172 170 169 170 160 157 158 152 153 156 158 161 164 166 164 163 162 159 155 153 151 147 146 147 149 153 150 145 136 131 126 118 114 112 115 118 118 117 114
125 155 108 137 112 136 155 149 279 157 252 251 215 286 125 171 216 189 143 122 195 180 228 189 142 110 109 251 300 282 216 183 164 166 175 180 185 185 186 186 184 186 186 187 186 182 181 182 182 180 180 177 174 172 170 174 180 177 179 180 169 165 164 163 166 163 162 167 173 176 177 177 173 167 167 166 163 162 159 155 153 151 153 152 144 141 139 133 128 122 118 116 118 121 122 119 113
130 140 86 118 76 188 173 168 188 155 227 229 183 194 108 209 166 163 172 147 210 235 122 124 149 150 155 176 225 222 198 182 171 171 171 177 184 185 188 187 186 188 188 188 187 187 185 184 184 182 183 182 181 178 176 180 183 182 182 185 175 167 170 172 175 182 183 187 190 192 190 188 185 179 176 175 173 172 169 170 169 167 165 154 143 141 141 136 132 128 124 122 120 122 123 123 120
113 111 62 110 182 238 200 184 129 124 241 222 202 143 90 282 160 162 236 148 154 291 69 185 201 292 167 175 232 208 184 178 175 177 172 173 178 181 185 184 187 188 189 191 189 191 189 187 187 185 185 186 186 183 182 184 186 188 186 186 183 178 182 185 188 194 196 199 201 201 197 192 192 189 186 186 185 184 185 187 187 182 170 152 146 146 145 141 138 135 131 129 122 117 114 120 133
73 89 69 123 191 224 198 176 165 155 241 245 291 63 114 258 275 186 285 89 127 100 46 263 283 359 183 206 299 191 175 175 175 175 172 170 172 175 180 183 186 187 189 193 193 194 191 191 191 187 186 188 189 187 187 188 188 190 190 190 192 193 196 197 198 197 194 197 201 199 195 192 193 189 190 196 196 198 200 201 198 183 167 155 152 151 150 148 145 143 139 134 123 112 98 90 108
65 108 119 197 193 210 183 178 197 171 196 221 230 137 138 166 224 262 26 42 55 84 36 335 331 346 261 257 294 167 170 173 173 171 169 169 171 174 180 185 186 188 190 193 196 195 193 195 195 190 187 190 191 191 190 190 190 190 192 193 195 200 201 198 200 199 194 192 196 198 197 197 198 197 199 203 204 205 206 206 198 179 167 159 156 156 156 154 152 152 150 145 132 109 82 71 74
123 124 148 215 200 211 188 178 199 180 166 172 141 152 160 176 173 120 119 255 309 127 302 345 350 337 340 246 159 161 169 171 172 172 171 172 176 179 183 187 189 190 191 193 195 196 196 198 198 194 190 191 192 192 192 191 192 191 191 194 195 198 199 198 201 204 201 194 198 200 201 203 205 207 208 206 206 204 201 199 190 176 169 163 161 163 162 161 159 160 160 157 143 103 64 61 65
164 128 183 228 210 230 198 173 197 222 185 129 103 161 166 198 169 126 168 203 261 197 214 251 240 255 268 161 157 161 169 172 175 176 176 180 184 186 186 189 193 194 194 195 195 197 199 200 200 198 195 194 194 194 194 193 193 192 193 195 196 197 198 201 204 209 207 198 201 200 199 203 203 208 208 205 204 202 197 190 183 176 172 169 169 170 170 170 167 163 158 149 138 116 80 67 59
165 147 193 222 195 239 215 181 193 210 173 132 127 135 149 208 153 135 149 153 271 247 224 201 203 204 186 183 169 165 170 176 182 184 185 188 191 193 194 195 198 199 198 196 197 199 201 203 201 200 199 198 198 197 196 196 195 193 194 197 200 200 200 204 206 213 214 204 207 202 195 196 196 202 206 207 204 198 191 184 181 179 177 177 176 178 179 177 175 170 160 144 136 138 120 74 41
170 211 206 207 170 221 231 186 180 156 118 108 103 159 172 171 143 148 154 170 236 234 226 214 200 180 172 175 174 172 176 182 189 193 195 195 197 200 201 202 202 202 200 198 200 201 202 204 204 202 201 202 202 201 200 200 198 196 197 200 203 204 205 208 207 213 217 209 211 206 197 193 191 196 203 204 199 192 188 184 183 184 185 185 185 188 188 185 183 177 169 159 153 163 181 170 5
191 261 270 224 175 212 248 166 179 136 110 129 155 203 75 47 293 183 171 208 234 228 228 222 203 179 171 167 168 176 185 190 195 200 200 200 202 204 205 205 205 205 204 204 204 203 204 205 206 205 204 203 205 205 205 204 202 201 202 205 208 208 208 209 207 211 214 210 212 211 206 201 196 196 201 202 198 193 190 189 189 191 192 194 196 198 198 193 185 181 182 185 190 209 227 235 272
177 237 271 241 175 214 261 91 149 126 124 168 167 105 44 176 261 191 197 238 249 258 271 233 194 168 162 163 173 185 190 195 201 203 203 204 206 208 208 209 208 208 207 208 208 206 206 205 206 207 207 206 205 206 208 207 205 204 207 210 212 212 212 211 209 208 210 211 213 214 214 214 209 206 207 208 206 202 199 197 197 200 200 203 205 205 204 197 188 188 193 203 211 225 241 249 269
216 219 243 234 199 236 271 62 85 91 138 160 125 123 234 212 198 323 245 257 262 265 317 125 148 150 164 176 186 191 194 201 205 208 209 210 211 212 212 212 210 209 209 210 210 211 210 206 206 208 210 209 207 207 209 209 207 207 211 214 214 213 214 213 210 209 210 212 215 217 218 220 219 216 212 212 216 214 210 208 206 207 208 211 214 212 207 199 194 196 203 216 220 228 244 253 268
220 198 187 176 241 256 263 200 235 347 203 136 121 248 263 225 182 280 250 251 261 75 88 129 142 159 186 190 192 195 198 204 207 209 212 214 215 215 216 214 213 212 213 213 212 214 213 209 209 209 211 210 209 209 209 209 208 209 214 217 217 215 213 212 210 210 211 213 215 216 219 221 223 222 217 214 220 222 219 218 215 214 215 216 219 217 208 200 200 206 216 226 225 231 245 258 267
201 171 179 187 259 293 95 218 253 332 256 178 165 253 279 271 211 254 260 256 237 110 114 156 163 183 199 200 200 200 203 208 208 208 211 214 215 217 217 215 216 216 215 215 215 216 215 213 212 212 213 211 210 211 211 210 209 211 215 217 218 216 212 209 210 211 211 213 214 215 217 220 223 225 220 217 223 228 229 226 221 219 219 219 222 218 207 203 205 217 226 229 228 239 256 273 268
162 152 201 271 338 327 289 231 257 301 251 185 154 260 287 311 221 222 252 263 163 155 174 173 187 203 205 207 207 202 210 213 208 207 210 212 214 215 215 216 217 217 217 218 218 217 217 216 215 215 215 213 212 213 213 211 211 213 215 216 217 217 213 211 212 212 211 213 213 213 215 217 221 225 222 221 227 233 235 232 227 225 223 221 223 217 207 206 212 221 226 223 227 242 258 268 255
108 128 183 272 320 300 241 226 243 180 217 175 135 300 279 245 233 212 230 243 185 168 187 194 207 216 214 216 215 211 217 213 205 210 216 215 216 215 215 218 217 217 219 220 220 219 218 218 217 218 218 216 216 216 216 215 214 214 215 217 218 217 215 215 216 214 212 213 213 213 215 217 220 225 225 225 231 235 238 235 230 229 228 224 223 217 209 210 217 222 223 225 231 242 247 243 231
130 129 158 252 316 277 225 195 153 164 206 161 134 285 261 242 242 217 218 232 226 218 214 213 216 220 223 222 221 224 221 211 206 214 219 218 218 218 219 220 218 219 220 219 220 220 220 220 219 219 219 220 219 219 220 218 217 216 217 218 219 220 218 219 220 218 217 216 216 215 215 218 221 226 228 229 233 236 237 235 231 231 231 226 221 217 212 214 221 225 227 234 242 245 240 236 236
136 157 179 174 202 253 220 176 149 179 233 125 126 259 261 257 255 232 227 221 224 234 231 223 222 225 227 224 224 231 226 216 217 220 221 220 220 220 222 222 219 219 220 219 220 221 221 221 221 221 221 222 222 222 222 222 221 219 219 220 220 221 221 223 223 221 222 222 221 219 219 222 224 227 229 231 234 234 232 231 230 231 230 228 223 217 215 218 224 227 232 241 247 243 236 237 240
154 189 193 177 197 263 285 202 170 190 255 81 140 236 268 270 262 239 227 203 214 234 241 234 231 233 231 229 227 233 236 229 229 230 228 225 223 222 223 223 220 219 219 219 221 222 222 222 221 222 222 223 223 224 225 224 223 222 222 224 223 223 223 225 225 224 227 227 225 224 224 224 226 228 229 230 231 227 224 226 229 230 230 230 227 221 219 221 225 228 235 244 245 238 234 240 245
243 207 184 177 185 226 298 281 213 197 185 227 206 234 266 277 279 262 234 174 205 231 253 251 241 240 235 232 228 229 238 238 237 236 234 229 226 225 225 224 222 221 221 220 221 221 222 222 221 221 222 224 225 225 225 224 224 224 226 228 227 227 227 228 228 227 230 231 229 227 226 225 225 227 229 229 227 223 221 225 228 230 231 231 228 224 223 224 228 231 237 241 240 236 236 244 246
220 179 165 201 175 180 225 276 257 203 186 220 217 236 252 256 291 319 343 120 198 234 257 261 251 243 237 237 237 233 232 234 234 233 232 230 227 227 226 226 224 223 223 222 222 223 223 223 221 221 223 224 225 226 226 225 224 225 228 230 230 231 232 233 232 231 233 234 231 230 228 227 227 228 231 229 226 223 224 227 230 232 233 233 228 225 225 226 230 234 236 239 241 240 238 244 239
175 166 169 184 174 193 204 227 237 190 191 224 216 241 256 258 260 270 279 232 211 249 250 257 258 252 245 240 240 238 234 235 236 234 233 230 227 227 226 226 225 223 223 223 223 224 224 224 222 222 222 223 225 226 226 225 225 226 227 229 230 232 234 235 234 235 236 236 234 233 231 230 230 231 233 229 225 225 227 228 231 232 233 232 227 225 226 229 230 231 234 239 244 242 239 241 236
163 180 184 178 187 216 215 231 244 182 175 223 221 234 254 259 254 241 253 250 257 266 259 259 263 262 252 238 237 237 236 236 238 239 237 232 229 227 225 225 224 224 224 223 223 223 223 223 222 222 222 221 222 222 223 222 222 223 225 227 228 230 232 233 235 236 237 237 236 235 234 233 233 234 234 230 225 226 229 230 231 232 232 230 227 226 227 229 229 229 233 240 244 241 234 233 232
155 172 195 190 196 232 223 231 258 191 177 229 221 229 250 259 260 246 244 253 266 264 260 259 256 258 250 237 237 234 236 240 242 244 239 234 233 229 225 224 223 223 223 223 222 222 222 222 222 222 221 220 219 219 218 219 219 220 222 224 227 230 231 232 233 235 236 237 238 238 237 236 235 235 234 230 227 228 229 231 232 231 230 229 228 228 230 232 232 233 238 242 242 237 229 226 225
163 174 196 205 206 230 229 224 257 204 197 252 227 228 252 259 263 257 239 228 251 251 251 256 248 249 250 241 238 234 240 249 251 251 240 230 232 228 224 222 220 220 221 221 221 222 222 222 222 223 221 220 219 219 219 219 220 221 222 225 227 230 232 232 233 235 236 238 239 240 239 237 236 236 234 231 229 229 229 230 231 230 231 232 232 232 234 236 235 235 239 239 237 232 229 226 221
180 173 185 211 208 248 271 246 252 200 203 254 245 236 255 262 266 263 243 230 249 249 239 245 243 244 249 244 241 236 242 249 247 251 239 227 228 225 220 218 219 221 222 221 222 223 222 222 223 223 221 221 221 221 220 221 222 224 226 228 230 230 232 234 236 237 238 239 240 241 240 237 236 236 234 232 230 230 229 230 231 232 232 233 235 235 235 236 236 236 238 238 234 228 227 227 222
195 173 179 209 170 154 249 255 219 204 197 218 264 268 263 270 278 271 246 232 251 256 243 245 241 237 245 246 247 240 237 243 243 245 239 227 226 221 216 215 218 220 221 220 220 221 222 223 224 222 222 222 222 222 222 223 224 226 228 230 233 233 235 237 237 238 239 240 241 240 239 237 236 236 234 233 232 231 231 231 232 233 233 234 235 236 235 235 236 236 238 238 233 226 223 224 223
215 203 194 198 171 187 220 226 169 280 278 151 357 307 274 248 262 267 255 231 251 259 253 256 249 239 246 251 252 245 239 242 241 242 238 225 223 220 217 217 217 217 218 219 220 220 222 223 224 223 222 223 223 223 223 223 223 224 224 225 228 231 233 233 232 234 236 238 240 239 239 237 236 236 235 235 234 233 233 233 234 235 236 235 235 236 236 237 237 237 238 237 232 228 226 225 223
232 223 201 192 182 198 206 156 105 9 302 267 110 288 279 245 250 262 268 272 264 260 251 256 255 246 243 247 249 246 245 244 240 240 237 222 222 223 220 219 217 216 218 219 221 222 223 224 223 223 222 223 224 224 223 222 220 220 219 217 219 221 223 225 227 230 232 234 237 239 239 238 237 237 236 236 237 236 235 235 235 236 237 238 237 237 237 238 238 238 238 236 234 233 231 228 225
236 211 178 187 194 202 196 161 150 224 258 297 115 212 273 294 265 258 265 274 269 265 252 254 258 254 241 240 245 243 244 246 243 242 237 224 221 220 221 220 218 219 220 220 222 223 223 223 223 223 223 222 222 223 222 221 219 219 219 219 220 220 222 226 229 231 233 236 238 239 239 239 238 237 237 237 237 238 238 237 237 238 238 239 240 239 239 239 239 240 239 238 236 236 232 228 227
234 164 156 188 201 199 192 167 185 226 260 325 93 173 276 282 255 244 247 258 270 272 264 257 256 254 246 242 243 240 240 242 242 241 235 228 222 217 219 221 220 223 223 221 221 222 221 222 223 223 222 222 221 221 221 221 220 219 220 222 223 224 226 230 233 234 236 238 240 240 241 241 240 239 238 238 238 238 238 238 239 239 239 240 240 240 241 241 241 241 240 239 239 238 235 232 232
238 154 159 180 170 157 161 167 188 352 0 271 219 137 269 268 255 252 249 241 250 257 257 257 256 252 248 244 243 239 239 240 239 240 237 231 226 222 223 224 224 224 223 221 222 222 221 221 222 222 222 221 220 220 220 220 221 221 221 223 225 228 230 232 235 237 238 238 240 241 242 242 242 241 240 239 238 238 238 239 239 240 240 240 240 242 243 243 243 241 241 240 239 239 238 237 235
225 154 141 117 96 89 98 144 139 83 281 249 226 163 231 266 238 199 244 236 234 246 253 256 253 251 250 249 247 242 241 243 239 239 239 234 229 227 227 226 226 225 223 223 223 223 221 221 220 219 221 221 220 219 218 220 220 220 222 223 225 228 230 232 234 236 237 238 239 240 241 242 242 242 242 241 240 238 238 239 239 240 240 241 242 243 244 244 244 243 242 242 242 241 240 239 238
111 132 114 77 53 54 67 59 68 127 238 245 221 178 195 266 233 180 210 211 207 226 247 254 252 251 254 252 251 249 246 246 242 241 244 242 238 233 229 225 225 226 224 223 223 223 221 220 217 218 220 220 219 218 218 219 220 220 223 224 226 228 228 228 230 233 234 235 237 239 239 240 241 242 243 242 241 239 238 239 239 240 241 241 242 243 244 245 245 244 243 243 242 242 241 240 240
72 158 137 122 12 37 76 40 62 213 241 245 219 177 179 238 242 183 228 232 211 219 234 247 251 251 251 251 256 260 256 256 252 247 247 246 244 236 227 223 224 225 222 221 223 223 221 219 217 217 219 219 218 218 217 219 219 220 224 225 227 229 228 227 228 231 232 233 236 238 238 240 241 242 242 241 241 239 238 238 239 240 240 240 242 243 245 246 246 245 243 242 242 242 241 240 239
178 298 164 169 195 200 189 200 196 227 245 260 210 165 185 237 245 229 244 251 240 231 232 242 249 253 256 257 260 260 253 255 254 251 249 243 241 233 222 221 223 221 219 220 222 222 220 219 217 217 219 219 217 217 218 219 219 221 224 225 227 229 228 228 230 233 233 234 236 237 237 238 239 240 240 240 240 239 237 238 238 239 239 240 241 242 244 245 244 244 243 242 241 241 241 239 238
185 188 184 183 181 196 207 204 215 235 241 273 113 159 216 260 258 236 235 242 242 238 239 243 244 251 257 258 262 264 255 244 242 248 250 244 239 233 224 222 222 220 220 220 220 220 218 217 216 217 220 220 217 217 218 219 221 224 225 226 228 229 229 230 232 234 235 235 236 237 237 238 239 240 240 240 241 239 239 239 239 239 240 241 241 242 243 244 244 243 243 242 242 243 242 240 240
192 189 189 198 188 195 205 199 213 231 247 289 165 181 209 237 254 243 234 248 262 263 262 260 253 250 253 262 267 268 265 253 244 242 243 243 240 237 231 225 223 223 222 221 220 219 217 217 216 217 221 221 217 217 219 219 222 225 226 227 228 229 230 231 233 235 235 235 236 236 237 238 239 241 242 242 242 240 240 241 240 240 241 241 241 242 243 244 243 243 243 243 244 245 243 241 241
199 168 189 222 200 169 187 209 205 212 270 271 216 224 231 232 273 281 261 272 276 267 269 269 264 254 245 260 261 255 260 258 248 240 239 243 243 239 235 228 225 225 223 222 220 218 217 217 217 218 222 222 218 218 219 221 223 225 225 227 228 229 230 231 233 235 235 235 235 236 238 239 240 242 243 243 243 243 242 242 241 242 243 242 243 244 243 244 244 243 243 243 243 244 243 242 242
174 170 201 218 134 127 164 265 222 98 238 238 207 253 279 301 284 262 249 273 278 269 264 253 254 255 237 249 256 249 252 252 245 238 237 242 244 241 236 231 228 226 223 222 221 219 218 218 218 219 223 223 219 219 221 222 224 224 225 227 228 229 229 231 233 235 235 234 235 237 239 240 241 242 243 244 245 245 244 244 243 244 245 245 245 245 245 245 244 243 243 242 243 244 244 243 242
143 195 199 154 65 87 131 242 1 80 239 253 215 237 246 267 269 236 216 243 259 265 261 244 243 251 235 242 249 244 246 250 253 248 242 244 244 243 240 235 232 229 226 226 224 222 220 219 219 220 222 223 221 221 222 223 224 224 226 228 228 229 230 232 234 235 235 234 235 238 239 241 243 243 243 245 245 246 246 245 245 246 247 247 247 247 246 246 244 243 244 243 244 245 243 243 243
151 202 171 125 170 224 154 188 206 170 226 263 231 231 228 218 235 211 199 221 228 243 251 246 242 240 230 239 246 248 252 254 257 252 247 246 237 237 239 238 237 234 231 231 228 225 223 222 222 222 225 226 225 223 223 224 224 225 227 229 229 230 231 233 235 235 234 233 236 238 238 241 243 243 245 245 245 246 246 246 247 247 248 249 249 248 247 246 244 243 243 243 244 244 242 242 242
230 170 145 134 197 202 177 205 222 180 220 259 248 233 232 225 222 203 208 217 218 234 248 253 253 245 236 237 241 248 250 242 241 240 243 246 240 237 238 239 242 239 236 234 230 227 226 225 224 225 228 229 228 226 225 226 226 226 228 230 231 231 232 233 234 234 233 234 237 238 239 241 243 244 245 246 246 247 247 247 248 248 249 249 249 249 248 247 245 243 243 243 244 243 242 242 243
188 190 186 183 191 172 182 218 206 181 216 242 256 255 253 239 208 197 208 214 217 228 240 247 248 243 238 236 236 243 248 239 233 230 238 248 252 250 244 242 243 241 236 234 230 228 228 227 227 227 228 229 229 228 227 227 227 227 229 230 232 233 233 234 234 234 234 236 238 238 239 241 242 244 245 246 247 248 248 249 249 250 250 249 248 248 247 246 244 244 243 243 244 244 243 243 243
186 199 195 190 190 179 193 208 193 193 220 203 219 258 260 241 181 191 202 209 218 220 223 235 242 239 236 237 234 236 242 239 230 227 237 247 254 256 248 238 232 228 226 225 224 225 226 227 229 229 230 230 230 230 229 229 229 229 230 232 233 234 234 235 235 235 235 237 238 239 240 241 242 245 246 246 248 249 250 251 250 250 250 249 249 247 247 245 243 243 244 244 244 243 241 242 243